When you browse on this site, cookies collect data to enhance your experience and personalize the content and advertising you see.
Visit our Privacy Policy to learn more. By continuing to use the site, you agree to this use of cookies and data.
  • In Austria
  • List of Countries
  • For 7 days
  • Water Temperature
  • Satellite Maps
  • Weather Map
  • News
  • Weather Widgets
  • user-avatar
    Login

    Hourly Weather Nottingham

    Today, 19 January, Saturday

    Time Temperature Precipitation Wind Pressure Humidity
    00:00 0°C° 0 mm 4 mps 752 mmHg 88%
    01:00 0°C° 0.8 mm 4 mps 751 mmHg 89%
    02:00 0°C° 0.8 mm 4 mps 751 mmHg 90%
    03:00 0°C° 0.8 mm 4 mps 751 mmHg 91%
    04:00 0°C° 0.2 mm 4 mps 751 mmHg 91%
    05:00 0°C° 0.2 mm 4 mps 751 mmHg 92%
    06:00 0°C° 0.2 mm 4 mps 750 mmHg 92%
    07:00 -1°C° 0 mm 4 mps 750 mmHg 92%
    08:00 -1°C° 0 mm 4 mps 750 mmHg 92%
    09:00 -1°C° 0 mm 4 mps 750 mmHg 91%
    10:00 0°C° 0 mm 4 mps 750 mmHg 93%
    11:00 0°C° 0 mm 4 mps 750 mmHg 94%
    12:00 0°C° 0 mm 4 mps 750 mmHg 96%
    13:00 +2°C° 0 mm 3 mps 750 mmHg 95%
    14:00 +2°C° 0 mm 3 mps 750 mmHg 95%
    15:00 +2°C° 0 mm 3 mps 750 mmHg 95%
    16:00 +2°C° 0 mm 3 mps 750 mmHg 95%
    17:00 +1°C° 0 mm 3 mps 750 mmHg 95%
    18:00 +1°C° 0 mm 3 mps 751 mmHg 94%
    19:00 +1°C° 0 mm 3 mps 751 mmHg 94%
    20:00 +2°C° 0 mm 2 mps 751 mmHg 95%
    21:00 +1°C° 0 mm 2 mps 752 mmHg 95%
    22:00 +1°C° 0 mm 2 mps 752 mmHg 95%
    23:00 +1°C° 0 mm 2 mps 752 mmHg 95%

    Tomorrow, 20 January, Sunday

    Time Temperature Precipitation Wind Pressure Humidity
    00:00 +2°C° 0 mm 2 mps 753 mmHg 96%
    01:00 +1°C° 0 mm 2 mps 753 mmHg 95%
    02:00 +2°C° 0 mm 1 mps 753 mmHg 95%
    03:00 +1°C° 0 mm 1 mps 754 mmHg 95%
    04:00 +1°C° 0 mm 1 mps 754 mmHg 95%
    05:00 +1°C° 0 mm 1 mps 754 mmHg 95%
    06:00 0°C° 0 mm 1 mps 755 mmHg 94%
    07:00 0°C° 0 mm 1 mps 755 mmHg 94%
    08:00 +1°C° 0 mm 1 mps 756 mmHg 93%
    09:00 +1°C° 0 mm 1 mps 757 mmHg 93%
    10:00 +2°C° 0 mm 1 mps 757 mmHg 91%
    11:00 +2°C° 0 mm 0 mps 757 mmHg 90%
    12:00 +3°C° 0 mm 0 mps 758 mmHg 88%
    13:00 +3°C° 0 mm 0 mps 758 mmHg 89%
    14:00 +4°C° 0 mm 1 mps 758 mmHg 91%
    15:00 +4°C° 0 mm 1 mps 758 mmHg 92%
    16:00 +3°C° 0 mm 1 mps 759 mmHg 92%
    17:00 +2°C° 0 mm 1 mps 760 mmHg 92%
    18:00 +2°C° 0 mm 1 mps 760 mmHg 92%
    19:00 +2°C° 0 mm 1 mps 761 mmHg 92%
    20:00 +2°C° 0 mm 1 mps 761 mmHg 91%
    21:00 +2°C° 0 mm 1 mps 761 mmHg 91%
    22:00 +2°C° 0 mm 1 mps 762 mmHg 91%
    23:00 +2°C° 0 mm 1 mps 762 mmHg 91%

    Day after tomorrow, 21 January, Monday

    Time Temperature Precipitation Wind Pressure Humidity
    00:00 +2°C° 0 mm 1 mps 763 mmHg 91%
    01:00 +2°C° 0 mm 1 mps 763 mmHg 92%
    02:00 +2°C° 0 mm 1 mps 763 mmHg 93%
    03:00 +2°C° 0 mm 1 mps 762 mmHg 95%
    04:00 +2°C° 0 mm 1 mps 762 mmHg 95%
    05:00 +2°C° 0 mm 1 mps 762 mmHg 96%
    06:00 +2°C° 0 mm 1 mps 762 mmHg 96%
    07:00 +2°C° 0 mm 1 mps 762 mmHg 96%
    08:00 +1°C° 0 mm 0 mps 762 mmHg 96%
    09:00 +2°C° 0 mm 0 mps 762 mmHg 96%
    10:00 +3°C° 0 mm 1 mps 761 mmHg 95%
    11:00 +3°C° 0 mm 2 mps 761 mmHg 95%
    12:00 +2°C° 0 mm 3 mps 760 mmHg 94%
    13:00 +2°C° 0 mm 3 mps 759 mmHg 93%
    14:00 +3°C° 0 mm 3 mps 758 mmHg 92%
    15:00 +3°C° 0 mm 4 mps 757 mmHg 91%
    16:00 +1°C° 0 mm 4 mps 756 mmHg 91%
    17:00 +1°C° 0 mm 5 mps 755 mmHg 92%
    18:00 +1°C° 0 mm 5 mps 754 mmHg 92%
    19:00 +1°C° 0.1 mm 6 mps 752 mmHg 91%
    20:00 +1°C° 0.1 mm 6 mps 750 mmHg 90%
    21:00 +2°C° 0.1 mm 7 mps 749 mmHg 88%
    22:00 +2°C° 1.2 mm 7 mps 747 mmHg 88%
    23:00 +1°C° 1.2 mm 8 mps 746 mmHg 89%

    22 January, Tuesday

    Time Temperature Precipitation Wind Pressure Humidity
    00:00 +1°C° 1.2 mm 9 mps 744 mmHg 89%
    01:00 0°C° 0.9 mm 7 mps 744 mmHg 86%
    02:00 -1°C° 0.9 mm 6 mps 743 mmHg 83%
    03:00 -1°C° 0.9 mm 5 mps 743 mmHg 81%
    04:00 -1°C° 0 mm 5 mps 743 mmHg 80%
    05:00 -1°C° 0 mm 5 mps 743 mmHg 80%
    06:00 -2°C° 0 mm 6 mps 743 mmHg 80%
    07:00 -2°C° 0 mm 6 mps 742 mmHg 79%
    08:00 -2°C° 0 mm 6 mps 742 mmHg 78%
    09:00 -2°C° 0 mm 5 mps 742 mmHg 78%
    10:00 -2°C° 0 mm 6 mps 742 mmHg 76%
    11:00 -1°C° 0 mm 6 mps 742 mmHg 75%
    12:00 0°C° 0 mm 7 mps 742 mmHg 74%
    13:00 +1°C° 0.2 mm 6 mps 742 mmHg 77%
    14:00 0°C° 0.2 mm 4 mps 742 mmHg 79%
    15:00 +1°C° 0.2 mm 3 mps 742 mmHg 81%
    16:00 0°C° 0 mm 3 mps 743 mmHg 81%
    17:00 0°C° 0 mm 3 mps 743 mmHg 81%
    18:00 -1°C° 0 mm 3 mps 743 mmHg 81%
    19:00 -2°C° 0 mm 3 mps 744 mmHg 83%
    20:00 -2°C° 0 mm 3 mps 744 mmHg 85%
    21:00 -2°C° 0 mm 3 mps 744 mmHg 87%
    22:00 -2°C° 0 mm 3 mps 744 mmHg 87%
    23:00 -2°C° 0 mm 3 mps 744 mmHg 88%

    23 January, Wednesday

    Time Temperature Precipitation Wind Pressure Humidity
    00:00 -2°C° 0 mm 3 mps 745 mmHg 88%
    01:00 -2°C° 0 mm 3 mps 745 mmHg 87%
    02:00 -2°C° 0 mm 3 mps 745 mmHg 85%
    03:00 -2°C° 0 mm 3 mps 745 mmHg 83%
    04:00 -2°C° 0.1 mm 3 mps 745 mmHg 83%
    05:00 -3°C° 0.1 mm 4 mps 745 mmHg 84%
    06:00 -2°C° 0.1 mm 4 mps 745 mmHg 84%
    07:00 -1°C° 0.6 mm 4 mps 744 mmHg 85%
    08:00 -1°C° 0.6 mm 4 mps 744 mmHg 87%
    09:00 0°C° 0.6 mm 5 mps 744 mmHg 88%
    10:00 0°C° 0.2 mm 4 mps 744 mmHg 90%
    11:00 +2°C° 0.2 mm 3 mps 744 mmHg 91%
    12:00 +2°C° 0.2 mm 3 mps 744 mmHg 93%
    13:00 +3°C° 0.1 mm 2 mps 745 mmHg 93%
    14:00 +3°C° 0.1 mm 2 mps 745 mmHg 93%
    15:00 +3°C° 0.1 mm 2 mps 745 mmHg 93%
    16:00 +2°C° 0 mm 2 mps 746 mmHg 94%
    17:00 0°C° 0 mm 3 mps 747 mmHg 96%
    18:00 -2°C° 0 mm 4 mps 748 mmHg 97%
    19:00 -1°C° 0 mm 4 mps 749 mmHg 94%
    20:00 -1°C° 0 mm 4 mps 750 mmHg 90%
    21:00 -1°C° 0 mm 5 mps 752 mmHg 87%
    22:00 -2°C° 0 mm 4 mps 753 mmHg 87%
    23:00 -1°C° 0 mm 3 mps 754 mmHg 87%

    24 January, Thursday

    Time Temperature Precipitation Wind Pressure Humidity
    00:00 -2°C° 0 mm 3 mps 755 mmHg 87%
    01:00 -2°C° 0 mm 3 mps 755 mmHg 88%
    02:00 -2°C° 0 mm 3 mps 756 mmHg 89%
    03:00 -2°C° 0 mm 2 mps 756 mmHg 90%
    04:00 -2°C° 0 mm 3 mps 757 mmHg 91%
    05:00 -2°C° 0 mm 3 mps 758 mmHg 91%
    06:00 -2°C° 0 mm 3 mps 758 mmHg 91%
    07:00 -2°C° 0 mm 2 mps 759 mmHg 91%
    08:00 -2°C° 0 mm 2 mps 759 mmHg 90%
    09:00 -1°C° 0 mm 2 mps 759 mmHg 90%
    10:00 +1°C° 0 mm 2 mps 760 mmHg 88%
    11:00 +1°C° 0 mm 2 mps 760 mmHg 86%
    12:00 +2°C° 0 mm 2 mps 760 mmHg 85%
    13:00 +2°C° 0 mm 2 mps 759 mmHg 85%
    14:00 +2°C° 0 mm 2 mps 759 mmHg 86%
    15:00 +2°C° 0 mm 2 mps 759 mmHg 87%
    16:00 +1°C° 0 mm 2 mps 759 mmHg 87%
    17:00 +1°C° 0 mm 2 mps 760 mmHg 87%
    18:00 -1°C° 0 mm 2 mps 760 mmHg 87%
    19:00 -1°C° 0 mm 2 mps 760 mmHg 87%
    20:00 -1°C° 0 mm 2 mps 760 mmHg 87%
    21:00 -2°C° 0 mm 2 mps 760 mmHg 87%
    22:00 -2°C° 0 mm 2 mps 760 mmHg 88%
    23:00 -2°C° 0 mm 2 mps 760 mmHg 88%
    Show more